Location: Ferintosh
(52.7647°N, 112.9692°W)
Time: 18:20:37
(UTC+00:00)

A-11 Canister half - Pass Details

Date: 25 May 2024
Orbit: 1515 x 1685 km, 47.2° (Epoch: 12 June)

Event Time Altitude Azimuth Distance (km) Brightness Sun altitude
Rises 14:01:17 0° 281° (W) 4,703 11.0 21.5°
Reaches altitude 10° 14:04:31 10° 275° (W) 3,703 10.5 22.0°
Maximum altitude 14:13:07 45° 207° (SSW) 1,983 9.6 23.3°
Drops below altitude 10° 14:21:40 10° 139° (SE) 3,675 11.6 24.6°
Sets 14:24:52 0° 134° (SE) 4,664 12.2 25.0°
